Regional Weather Roundup
Issued by NWS Portland, ME

Home | Current Version | Previous Version | Text Only | Print | Product List | Glossary On
Versions: 1 2 3 4 5 6 7 8 9 10 11 12 13 14 15 16 17 18 19 20 21 22 23 24 25 26 27 28 29 30 31 32 33 34 35 36 37 38 39 40 41 42 43 44 45 46 47 48 49 50
861
ASUS41 KGYX 300310
RWRGYX
WEATHER ROUNDUP FOR MAINE AND NEW HAMPSHIRE
NATIONAL WEATHER SERVICE GRAY ME
1100 PM EDT THU SEP 29 2016

MEZ002-005-006-010-012-015-018-020-021-024-026-027-029-300400-
MAINE

CITY           SKY/WX    TMP DP  RH WIND       PRES   REMARKS
PORTLAND       PTCLDY    47  43  86 N6        30.55S
SANFORD        PTCLDY    41  40  96 CALM      30.55R
BAR HARBOR     CLOUDY   N/A N/A N/A N6        30.56S
WISCASSET      CLOUDY    44  40  85 CALM      30.57R
ROCKLAND       MOCLDY    51  45  79 NE5       30.55S
FRYEBURG       CLOUDY    40  40 100 CALM      30.57R
LEWISTONAUBURN PTCLDY    44  41  89 CALM      30.56S
AUGUSTA        PTCLDY    48  39  71 N5        30.57R
WATERVILLE     PTCLDY    46  39  76 N6        30.54S
BANGOR         CLOUDY    43  39  86 NW5       30.57S
GREENVILLE       N/A     42  38  85 CALM      30.54F
MILLINOCKET    CLOUDY    38  35  89 CALM      30.59S
HOULTON        CLOUDY    36  35  96 CALM      30.56R
PRESQUE ISLE   PTCLDY    36  34  93 CALM      30.58S
FRENCHVILLE    CLEAR     44  37  76 N6        30.56F
CARIBOU        CLEAR     44  38  79 N5        30.56S
$$

NHZ002-005-008-009-011-012-014-300400-
NEW HAMPSHIRE

CITY           SKY/WX    TMP DP  RH WIND       PRES   REMARKS
PORTSMOUTH     MOCLDY    51  47  86 N5        30.52R
ROCHESTER      PTCLDY    47  44  90 NW5       30.53S
NASHUA         PTCLDY    48  45  89 W3        30.53S
MANCHESTER     PTCLDY    51  46  83 N5        30.52R
CONCORD        CLOUDY    48  43  82 CALM      30.54R
LACONIA        PTCLDY    48  43  82 CALM      30.54S
PLYMOUTH       FAIR      43  42  97 CALM      30.54S
BERLIN         CLOUDY    42  38  85 CALM      30.55S
WHITEFIELD     PTCLDY    51  38  60 VRB6      30.52R
JAFFREY        CLEAR     49  45  86 CALM      30.52S
KEENE          PTCLDY    46  45  96 CALM      30.53R
LEBANON        MOCLDY    46  44  93 CALM      30.52R
MT WASHINGTON  CLOUDY    46  -8  10 SE9         N/A
$$

VTZ005-007-008-300400-
VERMONT

CITY           SKY/WX    TMP DP  RH WIND       PRES   REMARKS
ST JOHNSBURY     N/A     49  47  93 MISG      30.50S
MONTPELIER     PTCLDY    50  43  77 S3        30.54S
BURLINGTON     CLOUDY    59  46  62 SE8       30.47S
$$

MAZ007-012-024-CTZ003-RIZ002-NYZ038-NYZ072-300400-
SOUTHERN NEW ENGLAND AND NY

CITY           SKY/WX    TMP DP  RH WIND       PRES   REMARKS
BOSTON         MOCLDY    58  50  75 NE20      30.51R
WORCESTER      CLOUDY    49  46  90 NE10      30.49S
NANTUCKET      CLOUDY    60  53  77 NE16      30.43F
PROVIDENCE     CLOUDY    56  49  77 NE13      30.46F
HARTFORD       CLOUDY    53  46  77 NE7       30.48S
ALBANY         CLOUDY    56  44  64 NE5       30.46R
NEW YORK CITY  LGT RAIN  64  54  69 NE25G33   30.36F
$$

ANZ081-ANZ082-ANZ150-NHZ014-MEZ023>029-300400-
COASTAL MARINE OBSERVATIONS

STATION/POSITION TIME  TEMP    WIND        PRES    WAVE
                       AIR SEA DIR/SP/G            HT/PER
                 (UTC) (F)     (DEG/KT/KT) (MB)    (FT/S)
MOUNT DESERT ROC 0300   56      50/  9/ 10 1034.3R
MATINICUS ROCK   0200   54      50/ 10/ 10 1033.8R
ISLE OF SHOALS   0200   58      60/ 19/ 21 1032.7S
JEFFREYS LEDGE   0238      62                N/A     6/ 8
CASHES LEDGE BUO 0250   57 58   70/ 16/ 17 1033.1F   5/ 7
GEORGES BANK BUO 0150   64 65              1028.9    9/ 8
$$

.............KEY..............
   WCI - WIND CHILL
   TC  - TEMPERATURE IN CELSIUS
   VSB - VISIBILITY IN MILES
   HX  - HEAT INDEX
   FAIR- INDICATES FEW OR NO CLOUDS BELOW 12,000 FT, WITH NO
         SIGNIFICANT WEATHER AND/OR OBSTRUCTIONS TO VISIBILITY.






USA.gov is the U.S. government's official web portal to all federal, state and local government web resources and services.